Terug naar catalogus

STARLINK-35502

ActiefCommunicatieVLEO
NORAD 66435·PAYLOAD·🇺🇸 United States

Gelanceerd Nov 11, 2025 vanaf Cape Canaveral Space Force Station

Loading…

Volgende Passages (komende 24 uur)

TLE

VersSource: CelesTrak SupGP

Epoch: Sep 15, 2026, 02:31 UTC

1 66435C 25259P   26258.10534722  .00013072  00000+0  47348-3 0  2583
2 66435  42.9998 284.2526 0001242 261.5637 121.7139 15.27571854    15

Volg STARLINK-35502 in realtime met AllMySat

Download on the App Store